Notices

What's New in latest Release from April 7th, 2021:

- Updated Glossary, including Speed of Maximum Gust, and Total Hourly Precipitation

- Updated national and regional climate services offices contacts and prices information

- Addition of station inventory lists for 1981-2010, 1971-2000, and 1961-1990 Normals.

If you haven't already, please take our survey and provide feedback about our website: https://eccc.sondage-survey.ca/f/LanguageSelection.aspx?s=442ca660-fcf1-47c0-95a9-59707d6fd709

Hourly Data Report for November 15, 2020

VICTORIA UNIVERSITY CS
BRITISH COLUMBIA
Current Station Operator: ECCC - MSC

48°27'25.200" N
123°18'16.600" W
60.10 m
1018598
71783
WYJ

Download Data

Hourly Data (November 2020)
Hourly Data Report for November 15, 2020
TIME
LST
Temp Definition
°C
Dew Point Definition
°C
Rel Hum Definition
%
Precip. Amount Definition
mm

Wind Dir Definition
10's deg

Wind Spd Definition
km/h
Visibility Definition
km
Stn Press Definition
kPa
Hmdx Definition


Wind Chill Definition


Weather Definition


00:00 6.6 5.6 93 0.0 16 10   99.70     LegendNANA
01:00 6.8 6.1 96 0.0 15 5   99.71     LegendNANA
02:00 7.0 6.4 96 0.3 21 6   99.86     LegendNANA
03:00 7.7 4.8 82 0.9 23 10   99.81     LegendNANA
04:00 8.8 5.9 82 0.0 22 10   99.88     LegendNANA
05:00 9.4 5.0 74 0.0 23 14   99.99     LegendNANA
06:00 8.8 4.1 73 0.0 23 12   100.04     LegendNANA
07:00 6.8 5.3 90 1.2 26 16   100.21     LegendNANA
08:00 6.4 5.1 91 1.0 18 11   100.31     LegendNANA
09:00 7.4 5.8 89 0.0 8 1   100.39     LegendNANA
10:00 9.3 5.3 76 0.0 21 6   100.55     LegendNANA
11:00 8.7 5.2 79 0.0 18 5   100.66     LegendNANA
12:00 8.8 5.6 80 0.0 16 9   100.67     LegendNANA
13:00 9.0 5.3 77 0.0 19 9   100.74     LegendNANA
14:00 9.6 5.4 75 0.0 17 7   100.77     LegendNANA
15:00 9.7 5.0 72 0.0 18 7   100.83     LegendNANA
16:00 7.7 6.6 93 0.8 24 7   100.87     LegendNANA
17:00 6.7 6.4 98 0.0 0 1   100.92     LegendNANA
18:00 6.7 6.3 98 0.0 21 4   101.03     LegendNANA
19:00 7.3 6.6 95 0.0 16 5   101.07     LegendNANA
20:00 7.4 6.5 95 0.2 17 5   101.13     LegendNANA
21:00 6.1 5.5 96 0.0 18 3   101.16     LegendNANA
22:00 5.5 5.4 100 0.0 0 1   101.21     LegendNANA
23:00 6.7 6.7 100 0.3 2 2   101.25     LegendNANA

Notes on Data Quality.

Legend

  • E = Estimated
  • M = Missing
  • NA = Not Available*
  • [empty] = Indicates an unobserved value
Date modified: